THOR ABLESTAR DEB, 178

Orbit data source: Space-Track

THOR ABLESTAR DEB, 178 is space debris in LEO originally from a launch on Thu, 29 Jun 1961 UTC launched from the Air Force Eastern Test Range (AFETR). Debris objects in space refer to the collection of defunct objects orbiting the Earth. Examples of debris include non-operational satellites, rocket bodies, and fragments generated from explosions, collisions, or faulty payload assembly.

Loading next visibility...
Identifier
178, 1961-015BC
Orbit
LEO
Country
Flag of USUS
Related business
Manufacturer
Unknown
Mission
Spacecraft
Bus & Motor
Unknown
Mass
Unknown
Launch date (UTC)
1961-06-29 (65 years ago)
Launch vehicle
Unknown
Launch site
Air Force Eastern Test Range (AFETR)
Object type
Payload
Rocket body
Debris
Shape & HBR
Unknown shape, 0.1 m
Radar Cross Section
Small (<0.1 m²)

Expand to show TLE details & history
Last TLE update: 11 hours ago

TLE from 11 hours ago
0 THOR ABLESTAR DEB
1 00178U 61015BC  26073.55372117  .00000083  00000-0  11988-3 0  9999
2 00178  66.8639 231.9529 0073595  61.1006 299.7432 13.93042038284069
Epoch: 2026-03-14T13:17Z
TLE epoch observation values (Epoch: 2026-03-14T13:17:21.509Z)
Latitude
0.00004°
Longitude
-139.55995°
Altitude
893.73 km
Speed
7.419 km/s
True Right ascension
15h 27m 48s
True Declination
0° 00' 00"
Sunlit
Object was in full shadow at epoch
Visualization orbit readout
Latitude
Unknown
Longitude
Unknown
Altitude
Unknown
Speed
Unknown
Apparent Right ascension
Unknown
Apparent Declination
Unknown
Sunlit
N/A
Visualization observer readout
Local Sidereal Time
05:04:08
Azimuth
Unknown
Elevation
Unknown
Doppler factor
Unknown
Orbital elements
Apogee altitude
970.058 km
Perigee altitude
862.69 km
Semi-major axis
7,294.511 km
Eccentricity
0.00736
Inclination
66.8639°
RAAN
231.9529°
Arg. of periapsis
61.1006°
True anomaly
299.00763°
Mean anomaly
299.7432°
Eccentric anomaly
299.37575°
Mean motion
3.48377 °/min
Orbital period
103.34 mins
BSTAR
0.00011988
Loading maneuver chart data...
Computing Atmospheric mass density...

Documentation

Showing up to 5 results
|